+ View the NASA Portal
+ Center for Near-Earth Object Studies
IMPORTANT:
The SSD Announcement email list is now available. Major changes are coming in the near future, including possible hostname and/or URL changes. To be notified of such changes, subscribe to this email list.
Please visit
this page
for more details.
Don't show this message again
JPL Small-Body Database Browser
Search:
[
help
]
277185 (2005 QZ6)
Classification:
Main-belt Asteroid
SPK-ID:
2277185
[
Ephemeris
|
Orbit Diagram
|
Orbital Elements
|
Mission Design
|
Physical Parameters
|
Discovery Circumstances
|
Close-Approach Data
]
[ show orbit diagram ]
Orbital Elements at Epoch 2458600.5 (2019-Apr-27.0) TDB
Reference:
JPL 10
(heliocentric ecliptic J2000)
Element
Value
Uncertainty (1-sigma)
Units
e
.1745291685986758
8.4588e-08
a
2.244129070673727
1.3178e-08
au
q
1.852463089740923
1.9661e-07
au
i
4.153396479404293
7.3435e-06
deg
node
157.410589124655
6.7161e-05
deg
peri
152.946019270655
7.1448e-05
deg
M
44.15324555801504
1.8747e-05
deg
t
p
2458449.898150192420
(2018-Nov-27.39815019)
6.396e-05
TDB
period
1227.920286391883
3.36
1.0816e-05
2.961e-08
d
yr
n
.2931786403316316
2.5823e-09
deg/d
Q
2.635795051606531
1.5477e-08
au
Orbit Determination Parameters
# obs. used (total)
198
data-arc span
9356 days (25.62 yr)
first obs. used
1992-11-29
last obs. used
2018-07-12
planetary ephem.
DE431
SB-pert. ephem.
SB431-N16
condition code
0
norm. resid. RMS
.56357
source
ORB
producer
Otto Matic
solution date
2019-Jul-14 04:23:59
Additional Information
Earth MOID
= .838499 au
Jupiter MOID
= 2.62332 au
T_jup
= 3.609
[ show covariance matrix ]
[
Ephemeris
|
Orbit Diagram
|
Orbital Elements
|
Mission Design
|
Physical Parameters
|
Discovery Circumstances
|
Close-Approach Data
]
Physical Parameter Table
Parameter
Symbol
Value
Units
Sigma
Reference
Notes
absolute magnitude
H
17.6
n/a
MPO450166
277185 (2005 QZ6)
Discovered 2005-Aug-24 by NEAT at Palomar
Reference:
20110517/Numbers.arc
Last Updated:
2011-05-20
[ show close-approach data ]
[
Ephemeris
|
Orbit Diagram
|
Orbital Elements
|
Mission Design
|
Physical Parameters
|
Discovery Circumstances
|
Close-Approach Data
]
2019-Dec-06 01:28 UT
(server date/time)
Site Manager:
Ryan S. Park
Webmaster
:
Alan B. Chamberlin